Location: ???? ??????
(37.8524°N, 22.9988°E)
Time: 14:48:29
(UTC+00:00)

Daily predictions for brighter satellites

Satellite Brightness Start Highest point End
(mag) Time Altitude Azimuth Time Altitude Azimuth Time Altitude Azimuth
CZ-4B R/B 4.0 18:08:06 10° S 18:11:42 43° W 18:15:29 10° NNW
Tsikada Rocket 4.1 18:07:20 10° S 18:13:24 61° E 18:19:34 10° NNE
SPOT 1/Viking Rocket 3.9 18:11:20 10° S 18:16:28 69° WSW 18:21:36 10° NNW
USA 290 4.5 18:14:12 10° NW 18:16:52 24° WSW 18:19:31 10° SSW
Cosmos 921 Rocket 3.7 18:15:40 10° SSW 18:20:05 61° WNW 18:24:33 10° N
Resurs 01 Rocket 1.6 18:15:44 10° SSE 18:20:07 70° ENE 18:24:32 10° N
Cosmos 1371 Rocket 4.3 18:16:26 10° NNW 18:21:47 77° WSW 18:27:07 10° S
Okean O Rocket 1.7 18:20:22 10° SSE 18:24:44 64° ENE 18:29:08 10° N
Cosmos 1766 Rocket 3.8 18:23:34 10° N 18:27:58 56° E 18:32:20 10° SSE
Cosmos 44 4.5 18:25:02 10° NW 18:29:18 36° WSW 18:33:21 10° S
Cosmos 1743 2.8 18:26:26 10° N 18:29:58 52° E 18:33:30 10° SSE
Cosmos 2292 Rocket 4.2 18:25:16 10° S 18:31:42 84° E 18:36:35 10° N
CARTOSAT-1 3.5 18:27:42 10° SSE 18:31:57 87° ENE 18:36:14 10° NNW
ATLAS 3B R/B 3.8 18:24:41 10° NW 18:32:09 49° WSW 18:39:23 10° S
CZ-4B R/B 3.4 18:27:36 10° S 18:32:55 70° WSW 18:38:11 10° NNW
Lacrosse 5 4.1 18:31:49 10° WNW 18:35:20 19° WSW 18:38:50 10° SSW
Aureole 3 Rocket 3.8 18:35:42 10° N 18:40:40 88° ENE 18:47:42 10° S
OAO 3 Rocket 4.3 18:40:28 10° SSW 18:44:11 23° SSE 18:46:49 15° ESE
CZ-4 R/B 3.5 18:41:29 10° SSW 18:44:34 24° W 18:47:43 10° NW
MOS 1-B Rocket 4.4 18:40:51 10° SSE 18:48:29 89° ENE 18:54:58 10° NNW
Cosmos 2297 4.4 18:43:20 10° NNW 18:48:52 52° WSW 18:54:20 10° S
CSL-04 Rocket 4.0 18:44:54 10° S 18:50:08 64° WSW 18:55:23 10° NNW
Cosmos 1340 Rocket 4.2 18:50:17 18° ESE 18:51:42 21° E 18:54:46 10° NE
H-2A R/B 2.0 18:51:21 10° SW 18:52:16 12° SSW 18:52:16 12° SSW
SPOT 5 3.2 18:50:53 17° SE 18:53:58 42° ENE 18:58:05 10° N
USA 186 4.1 18:52:27 10° SSW 18:55:00 22° W 18:57:37 10° NW
USA 306 3.0 18:52:02 10° NW 18:55:46 52° NE 18:58:10 21° ESE
CZ-4C R/B 3.3 18:52:33 10° NNE 18:56:31 76° ESE 19:00:34 10° S
Ariane Rocket 4.4 18:53:58 15° ESE 18:56:42 23° ENE 19:00:36 10° NNE
Cosmos 1818 4.1 19:00:14 10° S 19:05:06 35° ESE 19:10:01 10° NE
IRS-1C Rocket 4.3 19:02:35 20° SE 19:06:09 54° ENE 19:11:16 10° N
Cosmos 1603 4.0 19:03:02 10° SSW 19:08:39 69° WNW 19:14:22 10° NNE
Cosmos 2279 Rocket 4.0 19:03:29 10° N 19:09:40 68° E 19:14:19 18° SSE
ERS-1 Rocket 3.5 19:09:20 23° SE 19:12:02 43° ENE 19:16:48 10° N
Cosmos 2369 Rocket 3.2 19:07:57 10° NW 19:13:13 42° WSW 19:18:25 10° S
Okean-O 2.8 19:10:08 16° S 19:13:36 71° WSW 19:18:01 10° NNW
USA 245 3.9 19:14:41 19° NE 19:14:41 19° NE 19:16:07 10° NNE
Cosmos 1726 1.5 19:11:25 10° N 19:14:31 86° E 19:15:43 34° S
Hubble Space Telescope 2.1 19:11:40 10° SW 19:14:33 21° S 19:14:33 21° S
Cosmos 614 Rocket 4.3 19:13:21 20° SSE 19:16:34 43° ESE 19:21:29 10° NNE
Okean 1 3.1 19:14:40 22° S 19:16:59 70° E 19:20:52 10° NNE
Cosmos 1452 Rocket 3.5 19:15:20 10° NNW 19:20:36 81° WSW 19:23:55 23° S
Cosmos 1634 Rocket 4.4 19:17:12 10° NNW 19:23:20 61° W 19:29:24 10° S
USA 59 Rocket 1.6 19:22:23 10° N 19:26:05 28° NE 19:28:31 20° E
Cosmos 1500 Rocket 3.7 19:23:04 10° N 19:27:18 55° E 19:28:44 36° SE
Meteor 1-19 Rocket 4.2 19:22:49 16° S 19:27:34 71° E 19:33:16 10° NNE
DELTA 2 R/B (1) 3.5 19:28:02 10° WSW 19:33:35 66° SSE 19:39:08 10° ENE
Molniya-1 3.5 19:34:21 16° SSW 19:36:47 81° ESE 19:43:26 10° NE
Cosmos 1805 Rocket 3.6 19:34:19 10° N 19:38:41 61° E 19:39:53 43° SE
Sich 1 3.0 19:35:42 10° N 19:40:03 64° E 19:41:12 45° SE
SeaSat 1 4.4 19:36:59 10° SSW 19:40:40 21° WSW 19:44:23 10° WNW
Cosmos 1536 3.2 19:40:25 10° NNW 19:44:16 58° W 19:45:45 34° SSW
Terra 1.7 19:43:43 40° SSE 19:45:23 79° ENE 19:50:06 10° N
ISS -2.2 19:42:59 10° WNW 19:45:48 25° SW 19:45:49 25° SW
GEOS 3 Rocket 4.0 19:41:13 10° NE 19:45:57 37° ESE 19:46:02 37° ESE
Meteor 1-11 Rocket 3.9 19:41:01 10° NNW 19:46:45 74° W 19:50:02 27° S
ARGOS Delta rocket 4.0 19:46:10 31° S 19:48:31 72° W 19:53:15 10° NNW
Spot 1 4.2 19:45:41 10° NNE 19:49:45 51° E 19:50:04 50° ESE
NOSS 3-3 (A) 3.5 19:51:29 10° SSW 19:56:44 85° ESE 20:02:44 10° NNE
Cosmos 1302 Rocket 3.9 19:53:52 10° NNW 19:59:06 90° E 20:00:37 48° SSE
Cosmos 1607 4.4 19:58:38 38° SE 19:59:15 38° ESE 20:05:10 10° NE
USA 281 3.8 19:58:04 30° ESE 20:00:46 44° ENE 20:06:57 10° N
Meteor 2-10 4.3 19:58:51 10° NNW 20:04:13 66° W 20:06:12 37° SSW
Landsat 4 3.9 20:07:17 54° W 20:07:17 54° W 20:10:42 10° NNW
MOS 1 Rocket 3.5 20:06:32 49° S 20:08:00 88° WSW 20:13:22 10° NNW
FALCON 9 R/B 3.7 20:05:19 10° W 20:11:06 53° S 20:19:08 29° SE
Spot 2 Rocket 3.7 20:10:35 43° SSW 20:12:04 65° WSW 20:17:06 10° NNW
Meteor 2-4 Rocket 3.7 20:16:16 44° S 20:18:16 87° E 20:24:14 10° N
Cosmos 1340 3.5 20:15:19 10° NNW 20:18:12 40° WNW 20:18:12 40° WNW
NOSS 2-1 (C) 3.8 20:14:45 10° NNW 20:19:04 84° ENE 20:19:55 63° SE
Cosmos 1743 Rocket 4.4 20:17:30 10° NNW 20:21:43 45° W 20:22:37 39° SW
Lacrosse 4 Rocket 1.7 20:19:01 10° NNW 20:22:48 56° NE 20:22:48 56° NE
Cosmos 1428 Rocket 4.5 20:20:29 36° SSW 20:23:06 76° W 20:29:13 10° N
IRIDIUM 104 4.1 20:23:49 10° N 20:29:04 78° E 20:29:34 70° SE
NOSS 3-3 (C) 4.2 20:24:42 10° SW 20:29:51 57° NW 20:35:50 10° NNE
Cosmos 1626 3.6 20:33:20 29° N 20:33:20 29° N 20:35:06 10° N
CZ-3 Stage 3 4.3 19:53:23 10° WSW 20:34:26 57° S 20:39:59 30° ESE
Ariane Rocket 3.9 20:34:06 34° SW 20:35:20 39° W 20:40:07 10° NNW
Cosmos 2285 Rocket 4.5 20:36:47 41° E 20:36:47 41° E 20:42:28 10° NNE
IRIDIUM 114 4.2 20:32:57 10° N 20:38:11 85° W 20:38:41 74° SSW
Cosmos 1092 Rocket 4.1 20:37:23 45° SSW 20:39:26 75° W 20:45:47 10° N
ARIANE 5 R/B 3.8 20:41:04 32° NE 20:41:04 32° NE 20:44:18 10° N
SPOT 3 Rocket 4.5 20:42:08 33° SW 20:43:13 37° W 20:47:59 10° NNW
Cosmos 1833 Rocket 2.5 20:43:39 69° SSW 20:44:23 89° ESE 20:50:01 10° NNE
MetOp-A 3.9 20:44:25 68° WSW 20:44:27 68° WSW 20:49:22 10° NNW
CZ-2C R/B 4.3 20:40:15 10° NNE 20:43:34 45° NE 20:43:34 45° NE
IRIDIUM 103 4.4 20:42:08 10° N 20:47:19 70° W 20:47:49 65° SW
Cosmos 1328 Rocket 4.1 20:50:56 52° WNW 20:50:56 52° WNW 20:54:58 10° N
Cosmos 724 4.1 20:51:21 75° SSE 20:51:42 79° ESE 20:57:34 10° NNE
Cosmos 407 Rocket 4.3 20:54:39 39° ENE 20:54:39 39° ENE 20:58:28 10° NNE
Cosmos 2082 Rocket 3.6 20:57:00 25° ENE 20:57:00 25° ENE 21:00:14 10° NE
Cosmos 1656 3.6 20:51:43 10° NNW 20:57:10 69° WSW 20:57:19 68° WSW
Cosmos 1515 Rocket 4.3 21:01:28 48° NNE 21:01:28 48° NNE 21:04:38 10° N
Cosmos 44 Rocket 3.9 21:01:57 10° NNW 21:06:18 47° NE 21:06:18 47° NE
Cosmos 2360 4.1 21:01:09 10° NNW 21:06:54 82° ENE 21:06:58 82° E
USA 59 Rocket 1.7 21:11:31 10° NW 21:15:05 33° WSW 21:15:05 33° WSW
Cosmos 1470 Rocket 4.4 21:12:09 10° NNW 21:15:31 48° NW 21:15:31 48° NW
Cosmos 2251 Rocket 3.9 21:18:50 56° NE 21:18:50 56° NE 21:23:05 10° NNE
DELTA 2 R/B (1) 3.6 21:14:26 10° W 21:20:03 75° N 21:20:14 74° NNE
Cosmos 1633 Rocket 4.5 21:16:26 10° NNW 21:19:46 32° WNW 21:19:46 32° WNW
Cosmos 1417 Rocket 4.4 21:28:03 10° N 21:34:21 81° E 21:34:24 81° E
USA 281 4.2 21:44:56 32° WSW 21:45:17 33° WSW 21:51:07 10° NW
Cosmos 1697 Rocket 3.0 21:42:21 10° NNW 21:47:10 59° WNW 21:47:10 59° WNW
In-Cosmos 22 4.3 21:49:38 76° NNW 21:49:38 76° NNW 21:54:56 10° N
ALOS 2 3.8 21:51:27 39° N 21:51:27 39° N 21:54:21 10° N
USA 267 4.0 21:44:07 10° ENE 21:48:32 36° E 21:48:32 36° E
Cosmos 1980 Rocket 2.4 21:52:06 10° NNW 21:57:19 65° NE 21:57:19 65° NE
H-2A R/B 4.2 22:02:00 28° NW 22:02:00 28° NW 22:04:19 10° NNW
Lacrosse 5 rocket 3.5 21:59:22 10° NNW 22:02:19 22° NNE 22:02:19 22° NNE
S3M 4.0 21:57:20 10° N 22:03:41 72° W 22:03:41 72° W
NOSS 3-4 (A) 3.8 22:02:01 10° NNW 22:09:14 86° WSW 22:10:02 74° SSE
NOSS 3-4 (C) 3.8 22:02:07 10° NNW 22:09:20 87° WSW 22:10:10 74° SSE
Cosmos 2315 Rocket 4.0 22:15:46 10° N 22:21:53 76° WNW 22:21:53 76° WNW
Cosmos 2369 3.9 22:17:14 10° NNW 22:22:17 69° N 22:22:17 69° N
COSMOS 2406 3.6 22:27:11 56° WNW 22:27:11 56° WNW 22:32:41 10° NNE
Meteor 1-12 Rocket 4.4 22:21:34 10° NNW 22:27:01 73° NW 22:27:01 73° NW
ATLAS CENTAUR R/B 4.2 22:16:13 10° NW 22:29:01 56° WSW 22:30:30 53° SW
Cosmos 1763 Rocket 4.3 22:29:40 10° NNW 22:33:32 46° NW 22:33:32 46° NW
Cosmos 540 Rocket 4.1 22:30:25 10° NNW 22:34:20 53° NNW 22:34:20 53° NNW
SL-16 R/B 3.5 22:31:13 10° N 22:36:18 33° ENE 22:37:20 30° E
Cosmos 1244 Rocket 4.4 22:36:58 78° NE 22:36:58 78° NE 22:42:53 10° N
H-2A R/B 3.4 22:34:53 10° N 22:37:41 38° N 22:37:41 38° N
Cosmos 2082 Rocket 3.2 22:38:49 36° WNW 22:39:16 37° WNW 22:44:33 10° N
Cosmos 2360 Rocket 4.3 22:45:31 10° N 22:49:46 21° NE 22:52:52 14° E
Meteor 2-20 Rocket 4.4 22:46:36 10° N 22:53:06 87° E 22:53:06 87° E
Okean 1-7 4.4 23:09:28 36° NNW 23:09:28 36° NNW 23:12:08 10° N
Cosmos 2237 4.3 23:03:23 10° NNW 23:09:03 70° ENE 23:09:03 70° ENE
SL-4 R/B 3.7 23:21:10 33° NE 23:21:10 33° NE 23:23:38 10° NE
Cosmos 2278 3.8 23:15:58 10° NNW 23:21:02 69° NW 23:21:02 69° NW
Timation 1 Rocket 4.3 23:25:33 72° WNW 23:25:35 72° WNW 23:31:33 10° NNE
Cosmos 2322 Rocket 2.6 23:26:16 10° NNW 23:31:52 58° ENE 23:32:46 52° ESE
SJ 16-02 2.3 23:34:22 44° NNE 23:34:22 44° NNE 23:37:25 10° NNE
USA 267 3.8 23:27:03 10° NE 23:33:19 51° NW 23:35:52 34° W
Cosmos 968 Rocket 3.7 23:37:40 65° NNW 23:37:40 65° NNW 23:42:16 10° NNE
Cosmos 1980 Rocket 4.4 23:38:06 10° WNW 23:39:03 12° WNW 23:39:03 12° WNW
Cosmos 2333 Rocket 2.9 23:38:56 10° NNW 23:44:31 51° ENE 23:46:35 35° ESE
Resurs 1-4 Rocket 3.2 23:40:46 10° NE 23:45:27 32° E 23:46:04 31° ESE
Cosmos 2242 Rocket 4.1 23:47:02 58° NNE 23:47:02 58° NNE 23:50:44 10° N
Cosmos 1953 4.4 23:44:00 10° NNW 23:45:27 20° NW 23:45:27 20° NW
Cosmos 1745 Rocket 4.2 23:49:42 54° W 23:50:07 55° W 23:56:18 10° N
CZ-2D R/B 3.2 23:45:13 10° NNE 23:50:09 34° E 23:51:00 32° ESE
Tiangong 1.0 23:58:17 12° ENE 23:58:17 12° ENE 23:58:36 10° ENE
